Time,TemperatureF,DewpointF,PressureIn,WindDirection,WindDirectionDegrees,WindSpeedMPH,WindSpeedGustMPH,Humidity,HourlyPrecipIn,Conditions,Clouds,dailyrainin,SoftwareType,DateUTC
2013-03-03 00:09:00,57.6,49.0,0.00,NE,45,6.0,9.0,74,0.00,,,0.00,weatherlink.com 1.10,2013-03-03 06:09:00,
2013-03-03 00:24:00,57.4,49.0,0.00,NE,50,7.0,10.0,74,0.00,,,0.00,weatherlink.com 1.10,2013-03-03 06:24:00,
2013-03-03 00:39:00,57.0,49.0,0.00,ENE,57,9.0,9.0,75,0.00,,,0.00,weatherlink.com 1.10,2013-03-03 06:39:00,
2013-03-03 00:54:00,56.6,49.0,0.00,NE,46,5.0,10.0,76,0.00,,,0.00,weatherlink.com 1.10,2013-03-03 06:54:00,
2013-03-03 01:09:00,56.4,49.0,0.00,ENE,58,5.0,8.0,77,0.00,,,0.00,weatherlink.com 1.10,2013-03-03 07:09:00,
2013-03-03 01:39:00,55.8,49.0,0.00,NE,54,7.0,13.0,79,0.00,,,0.00,weatherlink.com 1.10,2013-03-03 07:39:00,
2013-03-03 01:54:00,56.0,50.0,0.00,ENE,57,9.0,9.0,79,0.00,,,0.00,weatherlink.com 1.10,2013-03-03 07:54:00,
2013-03-03 02:09:00,55.8,49.0,0.00,East,86,7.0,9.0,79,0.00,,,0.00,weatherlink.com 1.10,2013-03-03 08:09:00,
2013-03-03 02:24:00,55.5,50.0,0.00,ENE,70,4.0,8.0,81,0.00,,,0.00,weatherlink.com 1.10,2013-03-03 08:24:00,
2013-03-03 02:40:00,55.4,50.0,0.00,NE,52,4.0,9.0,81,0.00,,,0.00,weatherlink.com 1.10,2013-03-03 08:40:00,
2013-03-03 02:55:00,55.1,50.0,0.00,ENE,69,7.0,7.0,82,0.00,,,0.00,weatherlink.com 1.10,2013-03-03 08:55:00,
2013-03-03 03:10:00,55.2,50.0,0.00,ENE,68,5.0,8.0,83,0.00,,,0.00,weatherlink.com 1.10,2013-03-03 09:10:00,
2013-03-03 03:25:00,55.2,50.0,0.00,East,81,7.0,8.0,83,0.00,,,0.00,weatherlink.com 1.10,2013-03-03 09:25:00,
2013-03-03 03:40:00,55.3,50.0,0.00,ENE,67,5.0,9.0,83,0.00,,,0.00,weatherlink.com 1.10,2013-03-03 09:40:00,
2013-03-03 03:55:00,54.9,50.0,0.00,East,87,8.0,12.0,84,0.00,,,0.00,weatherlink.com 1.10,2013-03-03 09:55:00,
2013-03-03 04:10:00,55.1,51.0,0.00,NE,49,4.0,9.0,85,0.00,,,0.00,weatherlink.com 1.10,2013-03-03 10:10:00,
2013-03-03 04:25:00,55.0,51.0,0.00,ENE,70,7.0,10.0,85,0.00,,,0.00,weatherlink.com 1.10,2013-03-03 10:25:00,
2013-03-03 04:40:00,54.7,51.0,0.00,ENE,77,9.0,10.0,87,0.00,,,0.00,weatherlink.com 1.10,2013-03-03 10:40:00,
2013-03-03 04:55:00,54.5,51.0,0.00,ENE,65,4.0,10.0,87,0.00,,,0.00,weatherlink.com 1.10,2013-03-03 10:55:00,
2013-03-03 05:10:00,54.4,51.0,0.00,ENE,62,8.0,10.0,87,0.00,,,0.00,weatherlink.com 1.10,2013-03-03 11:10:00,
2013-03-03 05:25:00,54.1,51.0,0.00,East,84,5.0,11.0,88,0.00,,,0.00,weatherlink.com 1.10,2013-03-03 11:25:00,
2013-03-03 05:40:00,54.1,51.0,0.00,ENE,59,3.0,7.0,88,0.00,,,0.00,weatherlink.com 1.10,2013-03-03 11:40:00,
2013-03-03 05:56:00,53.9,51.0,0.00,ENE,70,5.0,9.0,88,0.00,,,0.00,weatherlink.com 1.10,2013-03-03 11:56:00,
2013-03-03 06:11:00,53.6,51.0,0.00,ENE,57,4.0,7.0,89,0.00,,,0.00,weatherlink.com 1.10,2013-03-03 12:11:00,
2013-03-03 06:41:00,54.5,51.0,0.00,ENE,76,7.0,8.0,88,0.00,,,0.00,weatherlink.com 1.10,2013-03-03 12:41:00,
2013-03-03 06:56:00,55.7,52.0,0.00,East,79,7.0,11.0,87,0.00,,,0.00,weatherlink.com 1.10,2013-03-03 12:56:00,
2013-03-03 07:11:00,57.0,52.0,0.00,ENE,75,10.0,12.0,84,0.00,,,0.00,weatherlink.com 1.10,2013-03-03 13:11:00,
2013-03-03 07:26:00,58.5,53.0,0.00,ENE,64,12.0,12.0,81,0.00,,,0.00,weatherlink.com 1.10,2013-03-03 13:26:00,
2013-03-03 07:41:00,60.3,53.0,0.00,East,94,11.0,12.0,77,0.00,,,0.00,weatherlink.com 1.10,2013-03-03 13:41:00,
2013-03-03 07:56:00,62.5,53.0,0.00,East,98,6.0,14.0,72,0.00,,,0.00,weatherlink.com 1.10,2013-03-03 13:56:00,
2013-03-03 08:11:00,64.2,54.0,0.00,East,81,9.0,15.0,69,0.00,,,0.00,weatherlink.com 1.10,2013-03-03 14:11:00,
2013-03-03 08:26:00,65.2,54.0,0.00,ESE,107,7.0,18.0,67,0.00,,,0.00,weatherlink.com 1.10,2013-03-03 14:26:00,
2013-03-03 08:41:00,66.6,54.0,0.00,ESE,103,13.0,17.0,64,0.00,,,0.00,weatherlink.com 1.10,2013-03-03 14:41:00,
2013-03-03 08:56:00,67.8,52.0,0.00,SE,134,21.0,30.0,58,0.00,,,0.00,weatherlink.com 1.10,2013-03-03 14:56:00,
2013-03-03 09:12:00,68.5,53.0,0.00,ENE,78,7.0,21.0,58,0.00,,,0.00,weatherlink.com 1.10,2013-03-03 15:12:00,
2013-03-03 09:27:00,69.3,51.0,0.00,ESE,118,15.0,25.0,52,0.00,,,0.00,weatherlink.com 1.10,2013-03-03 15:27:00,
2013-03-03 09:42:00,69.3,51.0,0.00,East,96,10.0,25.0,52,0.00,,,0.00,weatherlink.com 1.10,2013-03-03 15:42:00,
2013-03-03 09:57:00,70.0,51.0,0.00,ESE,121,10.0,22.0,51,0.00,,,0.00,weatherlink.com 1.10,2013-03-03 15:57:00,
2013-03-03 10:12:00,70.4,52.0,0.00,East,84,10.0,19.0,52,0.00,,,0.00,weatherlink.com 1.10,2013-03-03 16:12:00,
2013-03-03 10:27:00,71.4,49.0,0.00,ESE,102,21.0,26.0,46,0.00,,,0.00,weatherlink.com 1.10,2013-03-03 16:27:00,
2013-03-03 10:42:00,71.4,49.0,0.00,East,89,23.0,25.0,46,0.00,,,0.00,weatherlink.com 1.10,2013-03-03 16:42:00,
2013-03-03 10:57:00,71.7,49.0,0.00,SE,126,11.0,25.0,44,0.00,,,0.00,weatherlink.com 1.10,2013-03-03 16:57:00,
2013-03-03 11:12:00,72.6,49.0,0.00,ESE,106,13.0,24.0,44,0.00,,,0.00,weatherlink.com 1.10,2013-03-03 17:12:00,
2013-03-03 11:27:00,72.6,52.0,0.00,SE,128,16.0,26.0,48,0.00,,,0.00,weatherlink.com 1.10,2013-03-03 17:27:00,
2013-03-03 11:42:00,72.8,51.0,0.00,ESE,105,21.0,21.0,47,0.00,,,0.00,weatherlink.com 1.10,2013-03-03 17:42:00,
2013-03-03 11:57:00,72.1,50.0,0.00,ESE,109,18.0,25.0,46,0.00,,,0.00,weatherlink.com 1.10,2013-03-03 17:57:00,
2013-03-03 12:12:00,72.9,50.0,0.00,SE,140,7.0,17.0,45,0.00,,,0.00,weatherlink.com 1.10,2013-03-03 18:12:00,
2013-03-03 12:28:00,72.6,49.0,0.00,ESE,117,9.0,21.0,43,0.00,,,0.00,weatherlink.com 1.10,2013-03-03 18:28:00,
2013-03-03 12:43:00,73.4,49.0,0.00,SE,133,11.0,24.0,42,0.00,,,0.00,weatherlink.com 1.10,2013-03-03 18:43:00,
2013-03-03 12:58:00,73.4,49.0,0.00,SE,128,12.0,19.0,43,0.00,,,0.00,weatherlink.com 1.10,2013-03-03 18:58:00,
2013-03-03 13:13:00,73.6,50.0,0.00,SE,145,11.0,24.0,43,0.00,,,0.00,weatherlink.com 1.10,2013-03-03 19:13:00,
2013-03-03 13:28:00,74.4,50.0,0.00,ENE,78,18.0,23.0,42,0.00,,,0.00,weatherlink.com 1.10,2013-03-03 19:28:00,
2013-03-03 13:43:00,73.6,49.0,0.00,SSE,148,10.0,22.0,42,0.00,,,0.00,weatherlink.com 1.10,2013-03-03 19:43:00,
2013-03-03 13:58:00,73.7,50.0,0.00,SE,132,17.0,28.0,43,0.00,,,0.00,weatherlink.com 1.10,2013-03-03 19:58:00,
2013-03-03 14:13:00,73.5,50.0,0.00,East,92,13.0,21.0,44,0.00,,,0.00,weatherlink.com 1.10,2013-03-03 20:13:00,
2013-03-03 14:28:00,73.9,49.0,0.00,ESE,113,16.0,23.0,42,0.00,,,0.00,weatherlink.com 1.10,2013-03-03 20:28:00,
2013-03-03 14:43:00,73.8,50.0,0.00,SE,125,9.0,24.0,43,0.00,,,0.00,weatherlink.com 1.10,2013-03-03 20:43:00,
2013-03-03 14:58:00,73.4,48.0,0.00,ESE,121,18.0,26.0,41,0.00,,,0.00,weatherlink.com 1.10,2013-03-03 20:58:00,
2013-03-03 15:13:00,73.5,50.0,0.00,SE,128,13.0,22.0,43,0.00,,,0.00,weatherlink.com 1.10,2013-03-03 21:13:00,
2013-03-03 15:28:00,72.8,51.0,0.00,ESE,118,18.0,24.0,46,0.00,,,0.00,weatherlink.com 1.10,2013-03-03 21:28:00,
2013-03-03 15:44:00,72.8,50.0,0.00,SE,138,9.0,23.0,45,0.00,,,0.00,weatherlink.com 1.10,2013-03-03 21:44:00,
2013-03-03 15:59:00,72.3,50.0,0.00,SE,130,9.0,19.0,46,0.00,,,0.00,weatherlink.com 1.10,2013-03-03 21:59:00,
2013-03-03 16:14:00,72.1,48.0,0.00,SE,125,13.0,23.0,43,0.00,,,0.00,weatherlink.com 1.10,2013-03-03 22:14:00,
2013-03-03 16:29:00,72.0,49.0,0.00,SE,133,10.0,19.0,45,0.00,,,0.00,weatherlink.com 1.10,2013-03-03 22:29:00,
2013-03-03 16:44:00,71.3,50.0,0.00,SE,144,13.0,19.0,48,0.00,,,0.00,weatherlink.com 1.10,2013-03-03 22:44:00,
2013-03-03 16:59:00,70.7,52.0,0.00,ESE,115,17.0,19.0,52,0.00,,,0.00,weatherlink.com 1.10,2013-03-03 22:59:00,
2013-03-03 17:14:00,69.9,52.0,0.00,ESE,109,12.0,19.0,54,0.00,,,0.00,weatherlink.com 1.10,2013-03-03 23:14:00,
2013-03-03 17:29:00,68.8,53.0,0.00,SE,138,9.0,22.0,57,0.00,,,0.00,weatherlink.com 1.10,2013-03-03 23:29:00,
2013-03-03 17:44:00,67.8,52.0,0.00,SE,144,10.0,16.0,58,0.00,,,0.00,weatherlink.com 1.10,2013-03-03 23:44:00,
2013-03-03 17:59:00,66.9,53.0,0.00,SE,136,8.0,13.0,61,0.00,,,0.00,weatherlink.com 1.10,2013-03-03 23:59:00,
2013-03-03 18:14:00,66.0,52.0,0.00,SE,144,6.0,10.0,62,0.00,,,0.00,weatherlink.com 1.10,2013-03-04 00:14:00,
2013-03-03 18:29:00,65.1,52.0,0.00,SE,143,5.0,9.0,63,0.00,,,0.00,weatherlink.com 1.10,2013-03-04 00:29:00,
2013-03-03 18:44:00,64.2,53.0,0.00,South,171,4.0,10.0,66,0.00,,,0.00,weatherlink.com 1.10,2013-03-04 00:44:00,
2013-03-03 18:59:00,63.3,52.0,0.00,SE,142,4.0,9.0,67,0.00,,,0.00,weatherlink.com 1.10,2013-03-04 00:59:00,
2013-03-03 19:14:00,62.5,52.0,0.00,SE,138,4.0,7.0,69,0.00,,,0.00,weatherlink.com 1.10,2013-03-04 01:14:00,
2013-03-03 19:44:00,61.5,53.0,0.00,SE,134,1.0,5.0,73,0.00,,,0.00,weatherlink.com 1.10,2013-03-04 01:44:00,
2013-03-03 19:59:00,61.0,52.0,0.00,SSE,148,1.0,2.0,73,0.00,,,0.00,weatherlink.com 1.10,2013-03-04 01:59:00,
2013-03-03 20:14:00,61.0,52.0,0.00,SE,126,1.0,2.0,73,0.00,,,0.00,weatherlink.com 1.10,2013-03-04 02:14:00,
2013-03-03 20:29:00,60.9,52.0,0.00,SE,130,2.0,3.0,72,0.00,,,0.00,weatherlink.com 1.10,2013-03-04 02:29:00,
2013-03-03 20:44:00,60.8,52.0,0.00,ESE,113,1.0,3.0,73,0.00,,,0.00,weatherlink.com 1.10,2013-03-04 02:44:00,
2013-03-03 20:59:00,60.8,52.0,0.00,ESE,119,2.0,2.0,72,0.00,,,0.00,weatherlink.com 1.10,2013-03-04 02:59:00,
2013-03-03 21:14:00,60.7,52.0,0.00,SE,125,2.0,3.0,72,0.00,,,0.00,weatherlink.com 1.10,2013-03-04 03:14:00,
2013-03-03 21:29:00,60.0,51.0,0.00,ESE,121,2.0,4.0,73,0.00,,,0.00,weatherlink.com 1.10,2013-03-04 03:29:00,
2013-03-03 21:44:00,59.5,51.0,0.00,East,96,2.0,3.0,74,0.00,,,0.00,weatherlink.com 1.10,2013-03-04 03:44:00,
2013-03-03 21:59:00,58.7,51.0,0.00,East,92,5.0,5.0,76,0.00,,,0.00,weatherlink.com 1.10,2013-03-04 03:59:00,
2013-03-03 22:14:00,58.0,50.0,0.00,East,94,2.0,5.0,76,0.00,,,0.00,weatherlink.com 1.10,2013-03-04 04:14:00,
2013-03-03 22:29:00,57.2,51.0,0.00,East,87,5.0,6.0,79,0.00,,,0.00,weatherlink.com 1.10,2013-03-04 04:29:00,
2013-03-03 22:44:00,56.4,51.0,0.00,East,86,3.0,6.0,81,0.00,,,0.00,weatherlink.com 1.10,2013-03-04 04:44:00,
2013-03-03 22:59:00,56.2,50.0,0.00,East,87,5.0,7.0,81,0.00,,,0.00,weatherlink.com 1.10,2013-03-04 04:59:00,
2013-03-03 23:14:00,55.9,51.0,0.00,East,98,7.0,8.0,82,0.00,,,0.00,weatherlink.com 1.10,2013-03-04 05:14:00,
2013-03-03 23:29:00,55.9,50.0,0.00,East,91,6.0,8.0,81,0.00,,,0.00,weatherlink.com 1.10,2013-03-04 05:29:00,
2013-03-03 23:44:00,55.3,51.0,0.00,ENE,76,4.0,5.0,84,0.00,,,0.00,weatherlink.com 1.10,2013-03-04 05:44:00,
2013-03-03 23:59:00,54.8,50.0,0.00,East,92,6.0,6.0,85,0.00,,,0.00,weatherlink.com 1.10,2013-03-04 05:59:00,